Probability
0 0 0 0 0 0 0 0 0 0 0 0 0 0 10 19 19 23 42 68 84 84 84 81 77 77 74 71 74 74 68 61 55 58 58 61 71 77 77 84 77 71 68 68
0 0 0 0 0 0 0 0 0 0 0 0 0 0 10 19 26 35 39 58 71 81 81 81 81 74 74 71 71 71 68 61 61 61 58 61 71 77 77 77 74 74 71 68
0 0 0 0 0 0 0 0 0 0 0 0 0 3 6 19 23 35 32 42 55 65 77 77 74 74 71 71 65 55 61 52 58 52 48 58 71 74 74 81 74 71 65 61
0 0 0 0 0 0 0 0 0 0 0 0 0 0 13 19 29 26 26 29 52 58 68 68 74 71 65 68 58 52 58 52 52 55 45 55 58 65 74 84 81 74 65 52
0 0 0 0 0 0 0 0 0 0 0 0 0 0 13 13 19 16 23 16 32 58 58 65 65 68 61 52 52 52 48 48 52 52 55 61 65 74 74 81 77 71 65 52
0 0 0 0 0 0 0 0 0 0 0 0 0 0 0 3 16 13 23 26 48 52 52 77 65 52 55 52 52 48 52 52 58 58 55 61 61 74 74 77 68 68 65 48
0 0 0 0 0 0 0 0 0 0 3 0 0 0 0 3 6 19 23 26 35 42 48 61 58 58 52 48 48 48 52 58 55 55 61 65 71 74 77 77 58 48 48 58
0 0 0 0 0 0 0 0 0 0 0 0 0 0 0 0 6 10 10 16 23 32 45 52 65 65 58 48 48 45 52 55 55 58 58 61 74 68 65 71 55 58 45 45
0 0 0 0 0 0 0 0 0 0 0 0 0 0 6 3 6 6 10 16 23 32 39 45 58 61 55 52 55 55 58 61 61 58 65 61 68 68 65 74 71 45 61 39
0 0 0 0 0 0 0 0 0 0 6 0 0 0 3 6 13 10 13 16 26 35 35 42 45 58 55 52 58 55 58 61 65 61 55 42 61 61 65 68 65 61 55 55
0 0 0 0 0 0 0 0 0 0 0 0 0 0 0 10 16 13 16 23 35 32 32 42 42 52 58 65 58 65 65 71 61 61 61 58 55 61 61 71 65 68 68 68
0 0 0 0 0 0 0 0 0 0 6 10 3 3 3 3 13 13 23 32 39 42 45 52 52 55 58 61 55 61 58 58 61 61 61 61 65 61 68 65 68 68 65 68
0 0 0 0 0 0 0 0 0 0 0 3 0 0 6 19 19 23 26 45 52 58 58 58 58 58 65 68 65 58 55 55 58 65 68 74 65 68 71 74 65 65 68 65
0 0 3 0 0 0 0 0 0 0 0 3 0 3 6 19 32 29 32 55 52 68 61 61 65 65 71 68 61 52 48 48 48 58 61 68 77 68 65 65 58 68 65 65
0 0 0 0 0 0 0 0 0 0 0 0 0 3 16 32 42 42 42 48 48 65 55 55 58 61 65 61 58 52 48 55 58 58 58 55 58 58 61 61 58 58 65 61
0 0 0 0 0 0 0 0 0 0 0 0 3 10 19 35 42 48 45 45 45 61 61 55 48 55 55 65 55 58 58 58 61 55 55 48 52 48 58 58 58 61 61 65
0 3 0 0 0 0 0 0 0 0 0 0 6 19 29 45 48 48 55 48 58 52 55 55 52 52 61 58 58 48 52 58 58 55 55 55 55 58 58 58 58 65 65 68
0 10 3 0 0 0 0 3 0 0 0 3 16 19 29 39 35 45 48 42 55 61 55 61 61 58 58 61 55 55 48 52 55 55 55 58 55 55 58 58 58 58 58 58
0 6 0 0 0 0 0 3 3 0 0 13 23 26 23 23 29 42 48 48 55 55 58 61 55 48 55 55 52 55 48 45 52 52 52 52 52 48 55 52 52 55 55 52
0 0 0 0 0 0 3 3 3 0 3 19 19 23 23 19 19 32 42 52 48 48 52 52 52 55 55 48 52 55 52 45 45 48 52 48 48 45 45 48 48 55 55 52
0 0 0 0 0 0 0 0 0 0 10 26 26 32 39 32 29 23 23 35 32 39 35 39 45 48 52 52 52 52 52 48 52 52 48 48 48 48 48 48 48 52 52 42
0 0 0 0 0 0 0 3 6 23 23 19 19 29 16 13 19 16 23 26 29 26 26 29 35 35 35 45 45 42 42 42 48 39 32 26 26 26 29 35 45 45 32 23
0 0 3 0 0 6 0 3 6 3 16 6 13 13 6 0 10 10 10 16 19 19 19 19 23 19 19 23 26 23 23 19 19 19 19 19 16 19 26 26 23 23 23 10
0 0 0 0 0 0 0 0 3 3 0 3 3 3 0 3 3 0 6 6 0 0 3 10 13 10 10 13 10 10 10 10 10 10 10 10 3 3 6 6 3 6 3 3
0 0 0 0 0 0 0 0 0 0 0 0 0 0 0 0 0 0 6 3 0 0 3 6 6 3 3 6 10 10 6 6 6 6 3 3 3 3 0 0 0 0 0 0
0 0 0 0 0 0 0 0 0 0 0 0 0 0 0 0 3 0 3 0 0 3 3 0 0 0 0 0 0 6 6 6 6 3 3 3 0 0 0 0 0 0 0 0
Height
5858 5860 5860 5861 5863 5865 5866 5869 5869 5870 5871 5871 5870 5869 5868 5865 5863 5862 5860 5858 5854 5852 5850 5847 5845 5843 5840 5838 5837 5836 5835 5836 5838 5841 5845 5849 5853 5856 5860 5864 5867 5869 5872 5874
5855 5856 5857 5858 5859 5861 5863 5865 5867 5869 5869 5868 5868 5867 5865 5863 5861 5859 5858 5855 5853 5849 5847 5845 5842 5840 5837 5835 5834 5833 5834 5833 5834 5838 5842 5846 5850 5854 5858 5861 5864 5867 5869 5871
5851 5853 5853 5854 5856 5858 5859 5861 5863 5865 5865 5865 5865 5864 5861 5859 5858 5856 5855 5853 5851 5848 5845 5843 5840 5838 5836 5833 5832 5831 5831 5831 5832 5836 5839 5843 5848 5852 5856 5859 5862 5865 5867 5870
5846 5848 5850 5851 5853 5854 5856 5858 5859 5860 5861 5861 5862 5860 5858 5855 5854 5853 5851 5850 5848 5846 5844 5841 5838 5836 5834 5832 5831 5829 5829 5829 5831 5834 5837 5841 5845 5850 5854 5857 5860 5863 5865 5868
5843 5844 5845 5847 5850 5851 5853 5855 5855 5856 5856 5857 5857 5857 5855 5852 5849 5848 5848 5847 5846 5844 5842 5840 5837 5835 5833 5831 5829 5828 5828 5828 5829 5832 5836 5839 5843 5848 5851 5855 5857 5860 5863 5865
5839 5841 5842 5844 5846 5847 5849 5851 5852 5852 5853 5853 5853 5853 5852 5851 5849 5847 5846 5846 5845 5843 5841 5839 5836 5834 5832 5830 5828 5827 5826 5827 5828 5831 5834 5837 5842 5846 5849 5852 5855 5858 5861 5863
5835 5837 5839 5840 5842 5844 5846 5848 5850 5850 5850 5849 5849 5848 5849 5848 5847 5846 5846 5845 5844 5842 5840 5838 5836 5833 5831 5829 5827 5826 5825 5826 5827 5829 5832 5836 5840 5843 5846 5849 5853 5856 5858 5861
5832 5835 5836 5837 5839 5841 5843 5845 5847 5848 5848 5846 5845 5845 5846 5845 5845 5844 5844 5843 5842 5840 5839 5837 5835 5833 5830 5828 5827 5826 5825 5824 5826 5828 5830 5834 5837 5841 5844 5847 5850 5853 5856 5858
5831 5833 5834 5834 5836 5837 5840 5842 5845 5846 5845 5845 5844 5842 5841 5843 5842 5842 5841 5841 5840 5839 5837 5835 5833 5832 5830 5828 5827 5826 5824 5824 5825 5827 5829 5832 5835 5838 5841 5844 5847 5850 5853 5856
5825 5828 5831 5832 5833 5834 5836 5838 5841 5842 5842 5842 5843 5841 5839 5839 5838 5839 5838 5838 5838 5837 5835 5834 5832 5830 5829 5828 5827 5825 5824 5824 5825 5826 5828 5831 5833 5836 5839 5842 5845 5848 5850 5853
5820 5823 5826 5828 5829 5831 5833 5834 5835 5837 5839 5840 5840 5841 5837 5836 5836 5835 5835 5835 5835 5835 5833 5832 5830 5829 5827 5826 5825 5825 5824 5824 5825 5826 5828 5829 5831 5834 5837 5840 5842 5845 5847 5850
5815 5818 5821 5823 5826 5827 5828 5830 5832 5833 5834 5835 5836 5838 5833 5831 5831 5830 5832 5832 5832 5832 5831 5830 5829 5827 5826 5825 5825 5825 5824 5825 5825 5826 5827 5828 5830 5832 5835 5837 5840 5842 5845 5847
5809 5812 5815 5818 5822 5823 5823 5825 5827 5828 5829 5830 5832 5835 5830 5829 5829 5829 5829 5829 5829 5829 5828 5828 5827 5825 5824 5824 5824 5824 5824 5824 5824 5825 5826 5827 5828 5830 5832 5835 5837 5839 5841 5844
5803 5806 5810 5813 5814 5814 5815 5818 5820 5822 5824 5826 5827 5828 5825 5824 5823 5824 5825 5825 5825 5825 5825 5825 5825 5824 5823 5823 5823 5823 5823 5823 5823 5824 5824 5826 5827 5828 5830 5832 5834 5836 5838 5840
5797 5799 5802 5805 5806 5807 5808 5810 5812 5814 5817 5820 5821 5821 5820 5818 5818 5819 5819 5819 5820 5821 5822 5822 5822 5822 5821 5821 5821 5821 5821 5821 5822 5822 5823 5824 5825 5826 5827 5829 5830 5833 5835 5836
5789 5792 5794 5797 5800 5801 5802 5805 5806 5808 5811 5812 5814 5815 5814 5811 5812 5813 5814 5815 5815 5817 5818 5818 5818 5819 5818 5817 5818 5819 5819 5819 5819 5820 5821 5821 5822 5823 5825 5826 5827 5829 5831 5832
5781 5785 5788 5791 5794 5795 5797 5800 5801 5802 5804 5806 5806 5807 5806 5805 5807 5808 5809 5810 5812 5812 5813 5814 5815 5815 5815 5815 5815 5816 5816 5816 5817 5817 5818 5818 5819 5820 5822 5823 5824 5825 5826 5828
5776 5778 5781 5784 5787 5787 5793 5793 5793 5794 5795 5797 5797 5797 5797 5798 5800 5802 5803 5804 5805 5807 5808 5809 5810 5811 5811 5812 5812 5812 5813 5813 5813 5814 5815 5816 5816 5817 5818 5819 5820 5821 5822 5822
5769 5771 5774 5777 5778 5780 5784 5784 5784 5786 5787 5787 5787 5788 5790 5791 5793 5794 5796 5797 5799 5801 5802 5804 5805 5806 5807 5808 5808 5808 5809 5809 5810 5810 5811 5812 5813 5813 5814 5815 5816 5816 5817 5817
5762 5764 5767 5769 5770 5773 5775 5774 5775 5779 5779 5777 5778 5780 5781 5784 5786 5787 5789 5791 5793 5795 5796 5798 5799 5801 5802 5803 5803 5804 5804 5805 5805 5806 5807 5808 5809 5809 5809 5810 5811 5811 5811 5812
5756 5757 5759 5761 5763 5765 5765 5765 5768 5771 5769 5769 5770 5772 5773 5775 5778 5780 5781 5784 5785 5788 5790 5792 5793 5795 5796 5797 5798 5799 5800 5801 5801 5802 5803 5804 5804 5804 5804 5805 5806 5805 5806 5806
5750 5751 5752 5753 5755 5758 5756 5758 5760 5760 5760 5761 5761 5763 5765 5766 5769 5771 5773 5776 5779 5781 5783 5785 5787 5789 5790 5792 5793 5794 5795 5796 5797 5797 5798 5799 5799 5800 5800 5800 5800 5800 5799 5799
5743 5745 5745 5747 5749 5748 5748 5749 5751 5752 5752 5753 5754 5755 5757 5758 5761 5764 5766 5768 5771 5774 5777 5779 5781 5783 5784 5785 5787 5788 5789 5790 5791 5791 5792 5792 5793 5793 5793 5793 5792 5792 5792 5791
5736 5737 5739 5739 5740 5740 5741 5742 5743 5744 5745 5746 5747 5748 5749 5751 5754 5757 5759 5761 5765 5767 5770 5772 5774 5776 5777 5779 5780 5782 5783 5783 5784 5784 5785 5786 5786 5786 5786 5785 5785 5784 5783 5783
5730 5730 5731 5733 5733 5733 5734 5735 5735 5736 5737 5738 5739 5740 5742 5745 5747 5749 5752 5755 5758 5761 5763 5766 5768 5769 5771 5772 5773 5775 5776 5777 5777 5778 5778 5779 5779 5778 5778 5777 5777 5776 5775 5774
5724 5725 5726 5726 5726 5726 5727 5728 5728 5729 5730 5731 5732 5734 5736 5738 5740 5743 5746 5749 5751 5754 5756 5759 5761 5763 5764 5766 5767 5768 5770 5771 5771 5771 5771 5771 5771 5771 5771 5770 5768 5767 5766 5764
Wind_Speed
16 15 13 11 9 9 10 12 11 8 11 14 14 13 13 15 15 15 17 19 20 19 18 17 16 16 16 15 14 14 14 15 16 16 18 19 19 18 18 17 15 14 13 12
16 14 13 12 12 13 14 14 13 13 15 15 15 14 13 16 16 15 16 18 20 19 17 17 16 15 15 13 12 12 12 12 14 16 17 18 19 18 17 16 15 15 14 13
16 13 13 13 13 14 14 15 14 14 14 14 14 13 14 16 16 15 15 18 18 17 17 17 15 14 14 12 10 10 11 11 13 16 16 16 18 17 16 15 14 14 14 13
15 14 15 15 14 14 14 14 15 15 15 15 13 15 16 16 15 14 15 16 16 16 17 16 14 13 12 11 10 9 9 10 12 15 16 16 16 16 15 15 14 14 14 13
15 15 17 16 15 15 14 15 15 15 15 15 14 15 16 18 16 13 14 15 14 15 16 15 14 13 12 12 10 8 9 9 11 14 16 16 16 16 16 15 14 14 14 13
16 15 16 16 16 15 15 15 14 13 13 13 13 14 14 16 15 14 16 16 14 15 15 15 14 13 12 12 11 8 8 9 11 13 15 17 17 17 16 14 14 14 14 13
15 16 17 16 16 15 14 13 11 12 13 13 12 12 12 13 15 17 17 16 15 15 15 14 13 13 12 11 10 8 7 8 9 12 15 16 17 16 16 15 14 14 14 14
12 12 14 15 15 14 14 13 13 13 15 16 13 12 9 10 14 16 17 16 16 15 14 13 13 12 11 10 8 6 5 5 7 10 13 15 15 16 16 16 15 15 15 15
11 11 13 15 15 16 16 15 13 15 16 17 16 12 7 10 14 16 16 16 16 15 14 13 13 11 10 9 7 6 4 5 6 8 11 14 15 15 15 16 16 15 16 16
18 14 13 15 16 17 17 16 15 17 17 15 14 15 13 14 14 15 16 17 17 15 14 13 12 11 10 8 7 5 3 4 5 7 10 13 14 15 15 15 16 15 15 16
21 19 15 15 16 14 16 18 19 19 18 17 16 17 17 17 15 16 16 17 17 16 15 14 12 11 10 8 7 6 4 5 6 7 9 10 12 14 14 15 15 15 15 16
21 22 20 18 17 16 17 18 19 21 21 20 19 19 18 16 15 16 16 19 18 16 15 14 13 12 10 8 7 6 6 5 6 7 9 10 12 12 14 14 15 15 15 16
24 25 24 20 19 20 20 20 20 21 21 20 19 19 20 21 20 19 20 19 19 18 16 14 14 13 11 9 8 7 7 7 7 7 8 8 9 11 13 15 16 16 15 15
26 27 26 23 22 23 25 24 23 23 23 22 20 21 23 24 23 20 20 19 19 18 17 16 14 13 11 10 9 9 8 9 8 8 8 9 10 12 13 14 16 16 16 16
29 28 28 27 26 25 24 24 24 24 25 25 24 24 25 26 25 23 21 20 20 19 19 18 16 14 13 11 10 10 10 10 10 10 11 10 11 11 12 13 14 15 16 17
31 30 30 28 26 25 25 23 24 24 24 24 25 27 27 29 27 26 25 24 21 20 20 20 18 17 15 13 12 11 11 10 10 11 11 12 12 12 13 13 14 15 16 17
30 29 29 28 26 27 27 25 24 24 25 26 27 30 31 31 32 30 29 27 25 23 22 21 20 18 16 15 15 13 12 12 12 12 11 12 13 13 14 14 15 16 17 18
29 29 28 28 28 30 26 27 29 29 29 30 32 33 33 33 33 32 31 30 27 25 24 22 22 20 18 17 17 15 14 13 13 13 13 13 13 13 15 16 16 17 18 19
30 29 29 29 28 28 26 28 29 30 31 33 34 34 34 34 33 33 33 31 28 26 26 25 23 22 21 19 18 17 16 16 15 14 15 15 16 16 16 17 17 18 19 19
29 28 27 27 28 27 26 28 28 29 30 33 33 32 33 33 33 33 33 31 28 27 27 26 25 24 23 22 21 20 18 18 17 17 17 17 18 18 18 18 18 19 19 20
25 26 26 26 27 27 28 29 29 30 31 31 30 31 31 32 32 32 32 31 29 28 27 26 26 25 24 24 24 22 20 19 19 19 19 19 19 18 19 20 20 21 21 22
25 24 25 25 26 27 29 29 30 31 31 31 30 29 30 30 30 30 30 30 29 29 28 27 27 26 26 25 25 24 23 22 22 21 22 22 21 21 23 24 24 24 25 26
25 25 25 26 28 29 30 30 29 29 29 30 30 29 29 29 29 30 30 29 29 29 28 28 28 28 28 27 26 26 25 25 24 24 24 24 24 25 25 26 27 27 28 28
25 26 27 27 27 29 29 29 29 30 30 30 30 29 29 29 29 29 30 28 28 28 28 29 28 28 28 28 28 27 27 26 26 26 26 26 26 26 27 28 28 29 30 31
25 24 24 24 25 26 26 27 27 27 27 28 28 28 28 28 28 29 28 28 29 29 28 28 29 29 29 28 27 27 26 26 26 26 26 26 27 27 28 28 29 31 32 33
24 23 23 23 24 24 23 23 24 24 24 25 26 27 27 27 28 28 28 28 29 29 28 28 29 29 28 27 26 26 26 26 26 26 26 26 27 28 29 30 31 32 33 34
Wind_Direction
275 273 270 260 246 233 230 253 265 262 258 267 275 273 275 286 291 300 307 309 310 313 318 320 315 310 305 296 289 282 268 248 240 230 224 222 220 219 220 223 225 227 227 229
270 268 261 252 240 235 232 234 240 247 250 259 267 273 268 278 293 300 307 309 308 314 318 321 319 314 310 301 289 281 268 251 237 224 219 218 218 217 219 222 224 223 225 225
266 262 259 253 244 241 236 234 233 241 252 261 271 275 276 278 288 296 307 309 311 314 319 322 319 314 313 310 298 285 266 251 234 220 213 215 217 217 218 220 221 223 222 222
258 249 248 250 246 242 240 240 240 243 251 255 263 277 285 284 287 289 301 309 313 316 320 324 323 318 317 316 304 291 271 245 231 216 211 212 216 215 216 216 214 219 219 220
254 249 247 247 246 239 234 237 243 246 250 250 250 263 273 283 287 296 304 310 316 318 320 325 324 321 319 318 307 286 265 248 228 212 211 211 210 212 216 217 216 220 219 221
244 246 251 246 242 239 237 237 242 247 249 253 254 258 270 287 299 303 305 310 313 313 318 321 322 322 319 321 318 295 264 246 230 218 212 208 208 214 216 217 219 220 218 220
241 236 245 247 238 238 237 238 241 257 269 270 265 255 264 279 292 295 299 304 306 308 313 319 321 325 323 320 323 316 266 242 224 216 211 208 207 210 213 214 215 217 217 219
244 247 250 250 241 227 236 237 237 250 271 283 281 262 252 269 286 293 294 297 303 305 310 315 318 323 327 325 325 321 289 249 221 212 209 208 211 215 215 215 216 216 219 220
222 254 253 249 241 230 224 235 238 251 263 283 292 289 257 266 280 288 295 299 302 304 307 312 315 319 323 322 322 318 305 245 229 216 211 209 213 215 216 216 215 217 220 222
207 220 230 241 246 240 229 223 233 238 252 263 271 278 277 272 276 283 290 298 298 302 303 307 313 317 317 316 311 308 296 247 228 223 214 211 212 213 214 215 217 216 218 222
215 217 223 228 240 241 239 230 230 236 238 248 258 266 272 273 274 279 288 293 296 297 300 302 306 312 311 311 304 295 286 263 243 228 221 218 215 213 215 217 217 219 222 225
221 221 223 226 232 237 237 239 238 242 241 240 249 266 275 277 274 278 282 288 292 292 295 297 299 302 299 297 296 286 277 262 241 233 228 228 224 223 222 222 221 223 226 227
224 223 224 228 230 233 234 235 239 244 249 248 247 262 270 274 271 272 276 281 286 286 287 290 293 293 288 285 283 278 270 255 243 238 238 240 233 227 225 224 224 226 229 231
231 229 226 228 235 236 232 228 231 236 244 250 249 255 262 264 265 265 270 275 278 280 280 283 285 288 289 283 278 275 269 259 248 242 242 246 237 233 232 230 230 232 233 235
234 233 233 230 236 243 241 234 232 234 238 245 249 251 257 261 265 270 270 270 272 275 275 276 280 281 280 280 276 274 272 267 255 250 251 252 246 243 241 237 233 235 239 243
236 234 236 237 237 244 249 249 246 244 244 246 253 256 255 257 261 263 266 269 270 271 271 272 274 276 274 271 275 274 272 265 257 253 253 253 248 246 244 242 240 241 245 250
242 241 238 239 241 244 248 251 253 251 250 250 251 254 255 257 258 260 263 265 268 267 266 266 268 270 270 267 269 269 268 265 261 258 254 252 250 247 246 248 249 250 253 256
244 246 244 244 245 247 247 248 248 250 250 251 252 252 254 256 258 259 261 263 262 261 261 261 261 264 265 266 265 264 264 263 261 259 258 256 255 253 250 251 253 258 261 261
248 248 249 248 250 253 251 250 248 249 251 252 253 254 255 256 257 258 258 259 258 258 259 259 257 259 261 263 263 261 263 262 262 261 258 255 256 257 258 257 259 261 264 267
251 250 250 249 251 253 252 252 251 252 254 254 255 255 254 254 255 255 256 257 257 256 257 258 257 256 257 257 259 259 262 262 260 259 259 259 261 262 260 261 264 266 267 270
250 252 252 250 250 252 252 252 253 255 255 258 257 257 255 253 253 253 253 252 252 254 254 255 254 254 255 254 256 256 259 262 262 260 262 264 266 267 266 268 270 270 272 274
248 252 253 252 251 250 252 252 253 256 258 258 257 257 255 252 251 250 249 249 249 251 251 251 252 252 254 254 256 258 262 264 264 264 264 265 267 270 270 270 272 273 275 276
245 248 251 253 253 252 253 254 255 256 256 256 255 256 253 250 247 248 247 246 247 249 250 249 249 251 252 254 256 258 262 264 266 266 267 268 270 274 275 275 274 275 276 277
247 251 253 255 256 257 257 258 257 257 258 256 253 253 252 250 248 247 246 246 246 246 247 248 248 250 252 254 256 258 262 264 268 268 268 271 273 275 277 276 275 275 277 281
248 252 254 257 258 260 260 259 258 259 259 255 251 251 250 249 247 246 245 245 245 245 247 248 251 253 255 255 254 257 261 264 266 268 269 272 273 275 276 276 278 280 282 284
247 254 258 260 262 263 260 257 258 259 257 252 250 249 248 246 245 244 243 243 244 243 245 248 250 252 254 255 256 258 261 264 265 267 271 274 276 278 279 279 281 282 283 285